Вернуться в каталог

OPS 9341

IDSCS 19

LostВоенныеMEO
NORAD 3284·PAYLOAD·🇺🇸 United States

Запущен Jun 13, 1968 с Cape Canaveral Space Force Station

Loading…

Ближайшие Пролёты (ближайшие 24 часа)

TLE

УстаревшееSource: Space-Track

Эпоха: Aug 1, 2026, 05:14 UTC

1  3284U 68050A   26213.21808022 -.00000113  00000-0  00000+0 0  9998
2  3284   7.3005  51.2431 0014030 153.7413  79.2269  1.07854941 50696

Отслеживайте OPS 9341 в реальном времени с AllMySat

Download on the App Store